COSMOS 2526

Last updated on Tue Sep 22 2026 00:03:14 GMT+0000 (Coordinated Universal Time)

1 43432U 18037A 26264.51446412 -.00000348 00000+0 00000+0 0 9996 2 43432 0.0251 122.8889 0000826 150.5144 40.2587 1.00268080 30925
UTC large
Height (km)
Speed (km/s)
/
Latitude / Longitude
Inclination (degrees)
Orbital Period (minutes)
Azimuth
Elevation
Range (km)
Doppler Factor

Next 0 passes for location: London (51.5072 / 0.1276)

No passes found over London.
COSMOS 2526